owner,sensor,date,latitude,longitude,vertical_datum,wind_speed,wind_to_direction,wind_speed_of_gust,qcFlag 
TCOON,ioos:station:TCOON:005:1,2013-11-01T00:00:00Z,27.6346,-97.2370,0.0,1.5,6.0,2.5,'11111222,11111222,11111222' 
TCOON,ioos:station:TCOON:005:1,2013-11-01T00:06:00Z,27.6346,-97.2370,0.0,2.7,350.0,3.0,'11111222,11111222,11111222' 
TCOON,ioos:station:TCOON:005:1,2013-11-01T00:12:00Z,27.6346,-97.2370,0.0,3.0,26.0,3.3,'11111222,11111222,11111222' 
TCOON,ioos:station:TCOON:005:1,2013-11-01T00:18:00Z,27.6346,-97.2370,0.0,2.2,24.0,3.2,'11111222,11111222,11111222' 
TCOON,ioos:station:TCOON:005:1,2013-11-01T00:24:00Z,27.6346,-97.2370,0.0,2.4,23.0,2.8,'11111222,11111222,11111222' 
TCOON,ioos:station:TCOON:005:1,2013-11-01T00:30:00Z,27.6346,-97.2370,0.0,1.7,102.0,2.4,'11111222,11111222,11111222' 
TCOON,ioos:station:TCOON:005:1,2013-11-01T00:36:00Z,27.6346,-97.2370,0.0,2.1,100.0,2.1,'1111122,1111122,1111122' 
TCOON,ioos:station:TCOON:005:1,2013-11-01T00:42:00Z,27.6346,-97.2370,0.0,2.2,110.0,2.3,'11111222,11111222,11111222' 
TCOON,ioos:station:TCOON:005:1,2013-11-01T00:48:00Z,27.6346,-97.2370,0.0,1.4,112.0,2.3,'11111222,11111222,11111222' 
TCOON,ioos:station:TCOON:005:1,2013-11-01T00:54:00Z,27.6346,-97.2370,0.0,1.0,120.0,2.1,'1111122,1111122,1111122' 
TCOON,ioos:station:TCOON:005:1,2013-11-01T01:00:00Z,27.6346,-97.2370,0.0,1.3,132.0,1.4,'11111222,11111222,11111222' 
TCOON,ioos:station:TCOON:005:1,2013-11-01T01:06:00Z,27.6346,-97.2370,0.0,0.7,149.0,1.2,'11111222,11111222,11111222' 
TCOON,ioos:station:TCOON:005:1,2013-11-01T01:12:00Z,27.6346,-97.2370,0.0,0.7,151.0,0.9,'11111222,11111222,11111222' 
TCOON,ioos:station:TCOON:005:1,2013-11-01T01:18:00Z,27.6346,-97.2370,0.0,0.5,152.0,0.9,'11111222,11111222,11111222' 
TCOON,ioos:station:TCOON:005:1,2013-11-01T01:24:00Z,27.6346,-97.2370,0.0,0.2,118.0,0.5,'11111222,11111222,11111222' 
TCOON,ioos:station:TCOON:005:1,2013-11-01T01:30:00Z,27.6346,-97.2370,0.0,0.7,60.0,0.8,'11111222,11111222,11111222' 
TCOON,ioos:station:TCOON:005:1,2013-11-01T01:36:00Z,27.6346,-97.2370,0.0,1.0,62.0,1.4,'11111222,11111222,11111222' 
TCOON,ioos:station:TCOON:005:1,2013-11-01T01:42:00Z,27.6346,-97.2370,0.0,2.1,34.0,2.5,'11111222,11111222,11111222' 
TCOON,ioos:station:TCOON:005:1,2013-11-01T01:48:00Z,27.6346,-97.2370,0.0,3.6,30.0,4.1,'1111122,1111122,1111122' 
TCOON,ioos:station:TCOON:005:1,2013-11-01T01:54:00Z,27.6346,-97.2370,0.0,3.1,35.0,4.7,'11111222,11111222,11111222' 
TCOON,ioos:station:TCOON:005:1,2013-11-01T02:00:00Z,27.6346,-97.2370,0.0,3.4,38.0,4.2,'11111222,11111222,11111222' 
TCOON,ioos:station:TCOON:005:1,2013-11-01T02:06:00Z,27.6346,-97.2370,0.0,4.1,38.0,4.7,'11111222,11111222,11111222' 
TCOON,ioos:station:TCOON:005:1,2013-11-01T02:12:00Z,27.6346,-97.2370,0.0,4.2,40.0,4.9,'11111222,11111222,11111222' 
TCOON,ioos:station:TCOON:005:1,2013-11-01T02:18:00Z,27.6346,-97.2370,0.0,3.7,49.0,4.6,'11111222,11111222,11111222' 
TCOON,ioos:station:TCOON:005:1,2013-11-01T02:24:00Z,27.6346,-97.2370,0.0,3.7,45.0,4.1,'11111222,11111222,11111222' 
TCOON,ioos:station:TCOON:005:1,2013-11-01T02:30:00Z,27.6346,-97.2370,0.0,3.6,50.0,4.3,'11111222,11111222,11111222' 
TCOON,ioos:station:TCOON:005:1,2013-11-01T02:36:00Z,27.6346,-97.2370,0.0,5.7,40.0,6.2,'1111122,1111122,1111122' 
TCOON,ioos:station:TCOON:005:1,2013-11-01T02:42:00Z,27.6346,-97.2370,0.0,5.2,48.0,6.0,'11111222,11111222,11111222' 
TCOON,ioos:station:TCOON:005:1,2013-11-01T02:48:00Z,27.6346,-97.2370,0.0,5.2,48.0,5.7,'11111222,11111222,11111222' 
TCOON,ioos:station:TCOON:005:1,2013-11-01T02:54:00Z,27.6346,-97.2370,0.0,4.7,54.0,6.2,'11111222,11111222,11111222' 
TCOON,ioos:station:TCOON:005:1,2013-11-01T03:00:00Z,27.6346,-97.2370,0.0,4.9,61.0,5.6,'11111222,11111222,11111222' 
TCOON,ioos:station:TCOON:005:1,2013-11-01T03:06:00Z,27.6346,-97.2370,0.0,5.2,53.0,5.6,'11111222,11111222,11111222' 
TCOON,ioos:station:TCOON:005:1,2013-11-01T03:12:00Z,27.6346,-97.2370,0.0,5.6,56.0,6.2,'11111222,11111222,11111222' 
TCOON,ioos:station:TCOON:005:1,2013-11-01T03:18:00Z,27.6346,-97.2370,0.0,5.5,62.0,6.5,'11111222,11111222,11111222' 
TCOON,ioos:station:TCOON:005:1,2013-11-01T03:24:00Z,27.6346,-97.2370,0.0,5.9,58.0,6.8,'11111222,11111222,11111222' 
TCOON,ioos:station:TCOON:005:1,2013-11-01T03:30:00Z,27.6346,-97.2370,0.0,5.6,55.0,6.7,'11111222,11111222,11111222' 
TCOON,ioos:station:TCOON:005:1,2013-11-01T03:36:00Z,27.6346,-97.2370,0.0,5.6,59.0,6.4,'11111222,11111222,11111222' 
TCOON,ioos:station:TCOON:005:1,2013-11-01T03:42:00Z,27.6346,-97.2370,0.0,6.4,59.0,7.2,'11111222,11111222,11111222' 
TCOON,ioos:station:TCOON:005:1,2013-11-01T03:48:00Z,27.6346,-97.2370,0.0,6.2,70.0,7.7,'1111122,1111122,1111122' 
TCOON,ioos:station:TCOON:005:1,2013-11-01T03:54:00Z,27.6346,-97.2370,0.0,5.2,67.0,6.6,'11111222,11111222,11111222' 
TCOON,ioos:station:TCOON:005:1,2013-11-01T04:00:00Z,27.6346,-97.2370,0.0,5.0,62.0,5.8,'11111222,11111222,11111222' 
TCOON,ioos:station:TCOON:005:1,2013-11-01T04:06:00Z,27.6346,-97.2370,0.0,6.0,63.0,6.6,'11111222,11111222,11111222' 
TCOON,ioos:station:TCOON:005:1,2013-11-01T04:12:00Z,27.6346,-97.2370,0.0,5.1,63.0,6.6,'11111222,11111222,11111222' 
TCOON,ioos:station:TCOON:005:1,2013-11-01T04:18:00Z,27.6346,-97.2370,0.0,6.0,63.0,7.0,'11111222,11111222,11111222' 
TCOON,ioos:station:TCOON:005:1,2013-11-01T04:24:00Z,27.6346,-97.2370,0.0,6.2,70.0,6.7,'1111122,1111122,1111122' 
TCOON,ioos:station:TCOON:005:1,2013-11-01T04:30:00Z,27.6346,-97.2370,0.0,5.7,70.0,6.4,'11111222,11111222,11111222' 
TCOON,ioos:station:TCOON:005:1,2013-11-01T04:36:00Z,27.6346,-97.2370,0.0,5.5,65.0,6.2,'11111222,11111222,11111222' 
TCOON,ioos:station:TCOON:005:1,2013-11-01T04:42:00Z,27.6346,-97.2370,0.0,5.3,63.0,6.1,'11111222,11111222,11111222' 
TCOON,ioos:station:TCOON:005:1,2013-11-01T04:48:00Z,27.6346,-97.2370,0.0,5.4,60.0,6.4,'11111222,11111222,11111222' 
TCOON,ioos:station:TCOON:005:1,2013-11-01T04:54:00Z,27.6346,-97.2370,0.0,5.7,61.0,6.9,'11111222,11111222,11111222' 
TCOON,ioos:station:TCOON:005:1,2013-11-01T05:00:00Z,27.6346,-97.2370,0.0,5.7,63.0,6.6,'11111222,11111222,11111222' 
TCOON,ioos:station:TCOON:005:1,2013-11-01T05:06:00Z,27.6346,-97.2370,0.0,5.8,62.0,6.9,'11111222,11111222,11111222' 
TCOON,ioos:station:TCOON:005:1,2013-11-01T05:12:00Z,27.6346,-97.2370,0.0,6.3,65.0,7.2,'11111222,11111222,11111222' 
TCOON,ioos:station:TCOON:005:1,2013-11-01T05:18:00Z,27.6346,-97.2370,0.0,6.7,63.0,7.5,'11111222,11111222,11111222' 
TCOON,ioos:station:TCOON:005:1,2013-11-01T05:24:00Z,27.6346,-97.2370,0.0,5.8,66.0,7.5,'11111222,11111222,11111222' 
TCOON,ioos:station:TCOON:005:1,2013-11-01T05:30:00Z,27.6346,-97.2370,0.0,6.2,63.0,7.1,'11111222,11111222,11111222' 
TCOON,ioos:station:TCOON:005:1,2013-11-01T05:36:00Z,27.6346,-97.2370,0.0,6.2,60.0,6.7,'1111122,1111122,1111122' 
TCOON,ioos:station:TCOON:005:1,2013-11-01T05:42:00Z,27.6346,-97.2370,0.0,6.2,63.0,7.0,'11111222,11111222,11111222' 
TCOON,ioos:station:TCOON:005:1,2013-11-01T05:48:00Z,27.6346,-97.2370,0.0,6.2,60.0,6.7,'1111122,1111122,1111122' 
TCOON,ioos:station:TCOON:005:1,2013-11-01T05:54:00Z,27.6346,-97.2370,0.0,5.8,71.0,6.5,'11111222,11111222,11111222' 
TCOON,ioos:station:TCOON:005:1,2013-11-01T06:00:00Z,27.6346,-97.2370,0.0,5.6,76.0,6.9,'11111222,11111222,11111222' 
TCOON,ioos:station:TCOON:005:1,2013-11-01T06:06:00Z,27.6346,-97.2370,0.0,6.2,71.0,7.1,'11111222,11111222,11111222' 
TCOON,ioos:station:TCOON:005:1,2013-11-01T06:12:00Z,27.6346,-97.2370,0.0,5.7,73.0,6.7,'11111222,11111222,11111222' 
TCOON,ioos:station:TCOON:005:1,2013-11-01T06:18:00Z,27.6346,-97.2370,0.0,6.0,72.0,6.9,'11111222,11111222,11111222' 
TCOON,ioos:station:TCOON:005:1,2013-11-01T06:24:00Z,27.6346,-97.2370,0.0,5.5,74.0,6.8,'11111222,11111222,11111222' 
TCOON,ioos:station:TCOON:005:1,2013-11-01T06:30:00Z,27.6346,-97.2370,0.0,4.9,79.0,5.9,'11111222,11111222,11111222' 
TCOON,ioos:station:TCOON:005:1,2013-11-01T06:36:00Z,27.6346,-97.2370,0.0,5.1,77.0,5.9,'11111222,11111222,11111222' 
TCOON,ioos:station:TCOON:005:1,2013-11-01T06:42:00Z,27.6346,-97.2370,0.0,5.7,80.0,6.2,'1111122,1111122,1111122' 
TCOON,ioos:station:TCOON:005:1,2013-11-01T06:48:00Z,27.6346,-97.2370,0.0,5.5,78.0,6.6,'11111222,11111222,11111222' 
TCOON,ioos:station:TCOON:005:1,2013-11-01T06:54:00Z,27.6346,-97.2370,0.0,5.2,79.0,6.2,'11111222,11111222,11111222' 
TCOON,ioos:station:TCOON:005:1,2013-11-01T07:00:00Z,27.6346,-97.2370,0.0,6.1,76.0,7.1,'11111222,11111222,11111222' 
TCOON,ioos:station:TCOON:005:1,2013-11-01T07:06:00Z,27.6346,-97.2370,0.0,5.4,70.0,7.6,'11111222,11111222,11111222' 
TCOON,ioos:station:TCOON:005:1,2013-11-01T07:12:00Z,27.6346,-97.2370,0.0,5.6,72.0,6.6,'11111222,11111222,11111222' 
TCOON,ioos:station:TCOON:005:1,2013-11-01T07:18:00Z,27.6346,-97.2370,0.0,5.5,75.0,7.5,'11111222,11111222,11111222' 
TCOON,ioos:station:TCOON:005:1,2013-11-01T07:24:00Z,27.6346,-97.2370,0.0,5.0,74.0,6.2,'11111222,11111222,11111222' 
TCOON,ioos:station:TCOON:005:1,2013-11-01T07:30:00Z,27.6346,-97.2370,0.0,5.3,82.0,6.3,'11111222,11111222,11111222' 
TCOON,ioos:station:TCOON:005:1,2013-11-01T07:36:00Z,27.6346,-97.2370,0.0,5.1,71.0,5.6,'11111222,11111222,11111222' 
TCOON,ioos:station:TCOON:005:1,2013-11-01T07:42:00Z,27.6346,-97.2370,0.0,4.9,61.0,5.5,'11111222,11111222,11111222' 
TCOON,ioos:station:TCOON:005:1,2013-11-01T07:48:00Z,27.6346,-97.2370,0.0,4.1,70.0,5.1,'1111122,1111122,1111122' 
TCOON,ioos:station:TCOON:005:1,2013-11-01T07:54:00Z,27.6346,-97.2370,0.0,4.5,69.0,5.1,'11111222,11111222,11111222' 
TCOON,ioos:station:TCOON:005:1,2013-11-01T08:00:00Z,27.6346,-97.2370,0.0,4.5,70.0,5.5,'11111222,11111222,11111222' 
TCOON,ioos:station:TCOON:005:1,2013-11-01T08:06:00Z,27.6346,-97.2370,0.0,4.3,65.0,5.0,'11111222,11111222,11111222' 
TCOON,ioos:station:TCOON:005:1,2013-11-01T08:12:00Z,27.6346,-97.2370,0.0,4.5,65.0,5.3,'11111222,11111222,11111222' 
TCOON,ioos:station:TCOON:005:1,2013-11-01T08:18:00Z,27.6346,-97.2370,0.0,4.5,61.0,5.1,'11111222,11111222,11111222' 
TCOON,ioos:station:TCOON:005:1,2013-11-01T08:24:00Z,27.6346,-97.2370,0.0,4.8,65.0,5.4,'11111222,11111222,11111222' 
TCOON,ioos:station:TCOON:005:1,2013-11-01T08:30:00Z,27.6346,-97.2370,0.0,5.0,61.0,6.0,'11111222,11111222,11111222' 
TCOON,ioos:station:TCOON:005:1,2013-11-01T08:36:00Z,27.6346,-97.2370,0.0,5.1,60.0,5.7,'1111122,1111122,1111122' 
TCOON,ioos:station:TCOON:005:1,2013-11-01T08:42:00Z,27.6346,-97.2370,0.0,4.5,49.0,5.3,'11111222,11111222,11111222' 
TCOON,ioos:station:TCOON:005:1,2013-11-01T08:48:00Z,27.6346,-97.2370,0.0,3.6,50.0,5.1,'1111122,1111122,1111122' 
TCOON,ioos:station:TCOON:005:1,2013-11-01T08:54:00Z,27.6346,-97.2370,0.0,3.6,59.0,4.2,'11111222,11111222,11111222' 
TCOON,ioos:station:TCOON:005:1,2013-11-01T09:00:00Z,27.6346,-97.2370,0.0,4.2,51.0,4.4,'11111222,11111222,11111222' 
TCOON,ioos:station:TCOON:005:1,2013-11-01T09:06:00Z,27.6346,-97.2370,0.0,4.0,51.0,4.5,'11111222,11111222,11111222' 
TCOON,ioos:station:TCOON:005:1,2013-11-01T09:12:00Z,27.6346,-97.2370,0.0,4.1,57.0,4.6,'11111222,11111222,11111222' 
TCOON,ioos:station:TCOON:005:1,2013-11-01T09:18:00Z,27.6346,-97.2370,0.0,3.9,57.0,4.5,'11111222,11111222,11111222' 
TCOON,ioos:station:TCOON:005:1,2013-11-01T09:24:00Z,27.6346,-97.2370,0.0,4.1,65.0,4.5,'11111222,11111222,11111222' 
TCOON,ioos:station:TCOON:005:1,2013-11-01T09:30:00Z,27.6346,-97.2370,0.0,4.1,65.0,4.4,'11111222,11111222,11111222' 
TCOON,ioos:station:TCOON:005:1,2013-11-01T09:36:00Z,27.6346,-97.2370,0.0,3.7,69.0,4.3,'11111222,11111222,11111222' 
TCOON,ioos:station:TCOON:005:1,2013-11-01T09:42:00Z,27.6346,-97.2370,0.0,3.6,69.0,4.1,'11111222,11111222,11111222' 
TCOON,ioos:station:TCOON:005:1,2013-11-01T09:48:00Z,27.6346,-97.2370,0.0,3.6,72.0,4.3,'11111222,11111222,11111222' 
TCOON,ioos:station:TCOON:005:1,2013-11-01T09:54:00Z,27.6346,-97.2370,0.0,3.6,70.0,4.2,'11111222,11111222,11111222' 
TCOON,ioos:station:TCOON:005:1,2013-11-01T10:00:00Z,27.6346,-97.2370,0.0,3.3,71.0,3.8,'11111222,11111222,11111222' 
TCOON,ioos:station:TCOON:005:1,2013-11-01T10:06:00Z,27.6346,-97.2370,0.0,3.8,68.0,4.4,'11111222,11111222,11111222' 
TCOON,ioos:station:TCOON:005:1,2013-11-01T10:12:00Z,27.6346,-97.2370,0.0,3.9,70.0,4.2,'11111222,11111222,11111222' 
TCOON,ioos:station:TCOON:005:1,2013-11-01T10:18:00Z,27.6346,-97.2370,0.0,3.6,74.0,4.2,'11111222,11111222,11111222' 
TCOON,ioos:station:TCOON:005:1,2013-11-01T10:24:00Z,27.6346,-97.2370,0.0,3.5,85.0,4.1,'11111222,11111222,11111222' 
TCOON,ioos:station:TCOON:005:1,2013-11-01T10:30:00Z,27.6346,-97.2370,0.0,3.9,88.0,4.6,'11111222,11111222,11111222' 
TCOON,ioos:station:TCOON:005:1,2013-11-01T10:36:00Z,27.6346,-97.2370,0.0,4.6,80.0,5.1,'1111122,1111122,1111122' 
TCOON,ioos:station:TCOON:005:1,2013-11-01T10:42:00Z,27.6346,-97.2370,0.0,3.8,95.0,4.4,'11111222,11111222,11111222' 
TCOON,ioos:station:TCOON:005:1,2013-11-01T10:48:00Z,27.6346,-97.2370,0.0,4.5,87.0,5.1,'11111222,11111222,11111222' 
TCOON,ioos:station:TCOON:005:1,2013-11-01T10:54:00Z,27.6346,-97.2370,0.0,4.6,100.0,5.7,'1111122,1111122,1111122' 
TCOON,ioos:station:TCOON:005:1,2013-11-01T11:00:00Z,27.6346,-97.2370,0.0,4.3,92.0,5.3,'11111222,11111222,11111222' 
TCOON,ioos:station:TCOON:005:1,2013-11-01T11:06:00Z,27.6346,-97.2370,0.0,3.8,99.0,4.5,'11111222,11111222,11111222' 
TCOON,ioos:station:TCOON:005:1,2013-11-01T11:12:00Z,27.6346,-97.2370,0.0,3.4,95.0,4.7,'11111222,11111222,11111222' 
TCOON,ioos:station:TCOON:005:1,2013-11-01T11:18:00Z,27.6346,-97.2370,0.0,3.9,94.0,4.6,'11111222,11111222,11111222' 
TCOON,ioos:station:TCOON:005:1,2013-11-01T11:24:00Z,27.6346,-97.2370,0.0,3.6,99.0,4.3,'11111222,11111222,11111222' 
TCOON,ioos:station:TCOON:005:1,2013-11-01T11:30:00Z,27.6346,-97.2370,0.0,3.7,100.0,4.3,'11111222,11111222,11111222' 
TCOON,ioos:station:TCOON:005:1,2013-11-01T11:36:00Z,27.6346,-97.2370,0.0,4.0,94.0,4.6,'11111222,11111222,11111222' 
TCOON,ioos:station:TCOON:005:1,2013-11-01T11:42:00Z,27.6346,-97.2370,0.0,4.0,103.0,4.6,'11111222,11111222,11111222' 
TCOON,ioos:station:TCOON:005:1,2013-11-01T11:48:00Z,27.6346,-97.2370,0.0,4.6,110.0,5.7,'1111122,1111122,1111122' 
TCOON,ioos:station:TCOON:005:1,2013-11-01T11:54:00Z,27.6346,-97.2370,0.0,4.1,113.0,4.9,'11111222,11111222,11111222' 
TCOON,ioos:station:TCOON:005:1,2013-11-01T12:00:00Z,27.6346,-97.2370,0.0,4.1,112.0,5.2,'11111222,11111222,11111222' 
TCOON,ioos:station:TCOON:005:1,2013-11-01T12:06:00Z,27.6346,-97.2370,0.0,4.1,111.0,5.1,'11111222,11111222,11111222' 
TCOON,ioos:station:TCOON:005:1,2013-11-01T12:12:00Z,27.6346,-97.2370,0.0,4.5,112.0,5.6,'11111222,11111222,11111222' 
TCOON,ioos:station:TCOON:005:1,2013-11-01T12:18:00Z,27.6346,-97.2370,0.0,4.2,109.0,5.1,'11111222,11111222,11111222' 
TCOON,ioos:station:TCOON:005:1,2013-11-01T12:24:00Z,27.6346,-97.2370,0.0,4.3,114.0,5.5,'11111222,11111222,11111222' 
TCOON,ioos:station:TCOON:005:1,2013-11-01T12:30:00Z,27.6346,-97.2370,0.0,4.6,110.0,6.2,'1111122,1111122,1111122' 
TCOON,ioos:station:TCOON:005:1,2013-11-01T12:36:00Z,27.6346,-97.2370,0.0,4.5,112.0,6.1,'11111222,11111222,11111222' 
TCOON,ioos:station:TCOON:005:1,2013-11-01T12:42:00Z,27.6346,-97.2370,0.0,4.2,115.0,5.1,'11111222,11111222,11111222' 
TCOON,ioos:station:TCOON:005:1,2013-11-01T12:48:00Z,27.6346,-97.2370,0.0,4.1,120.0,5.1,'1111122,1111122,1111122' 
TCOON,ioos:station:TCOON:005:1,2013-11-01T12:54:00Z,27.6346,-97.2370,0.0,4.9,116.0,6.1,'11111222,11111222,11111222' 
TCOON,ioos:station:TCOON:005:1,2013-11-01T13:00:00Z,27.6346,-97.2370,0.0,5.0,116.0,6.0,'11111222,11111222,11111222' 
TCOON,ioos:station:TCOON:005:1,2013-11-01T13:06:00Z,27.6346,-97.2370,0.0,4.5,122.0,6.1,'11111222,11111222,11111222' 
TCOON,ioos:station:TCOON:005:1,2013-11-01T13:12:00Z,27.6346,-97.2370,0.0,3.5,122.0,5.0,'11111222,11111222,11111222' 
TCOON,ioos:station:TCOON:005:1,2013-11-01T13:18:00Z,27.6346,-97.2370,0.0,3.7,122.0,5.0,'11111222,11111222,11111222' 
TCOON,ioos:station:TCOON:005:1,2013-11-01T13:24:00Z,27.6346,-97.2370,0.0,4.1,118.0,4.9,'11111222,11111222,11111222' 
TCOON,ioos:station:TCOON:005:1,2013-11-01T13:30:00Z,27.6346,-97.2370,0.0,3.9,121.0,5.5,'11111222,11111222,11111222' 
TCOON,ioos:station:TCOON:005:1,2013-11-01T13:36:00Z,27.6346,-97.2370,0.0,4.1,120.0,5.1,'1111122,1111122,1111122' 
TCOON,ioos:station:TCOON:005:1,2013-11-01T13:42:00Z,27.6346,-97.2370,0.0,4.3,121.0,5.3,'11111222,11111222,11111222' 
TCOON,ioos:station:TCOON:005:1,2013-11-01T13:48:00Z,27.6346,-97.2370,0.0,3.6,120.0,5.1,'1111122,1111122,1111122' 
TCOON,ioos:station:TCOON:005:1,2013-11-01T13:54:00Z,27.6346,-97.2370,0.0,4.3,119.0,5.1,'11111222,11111222,11111222' 
TCOON,ioos:station:TCOON:005:1,2013-11-01T14:00:00Z,27.6346,-97.2370,0.0,4.1,119.0,5.6,'11111222,11111222,11111222' 
TCOON,ioos:station:TCOON:005:1,2013-11-01T14:06:00Z,27.6346,-97.2370,0.0,4.7,123.0,5.8,'11111222,11111222,11111222' 
TCOON,ioos:station:TCOON:005:1,2013-11-01T14:12:00Z,27.6346,-97.2370,0.0,4.2,126.0,6.0,'11111222,11111222,11111222' 
TCOON,ioos:station:TCOON:005:1,2013-11-01T14:18:00Z,27.6346,-97.2370,0.0,4.1,126.0,5.5,'11111222,11111222,11111222' 
TCOON,ioos:station:TCOON:005:1,2013-11-01T14:24:00Z,27.6346,-97.2370,0.0,4.6,116.0,6.2,'11111222,11111222,11111222' 
TCOON,ioos:station:TCOON:005:1,2013-11-01T14:30:00Z,27.6346,-97.2370,0.0,4.2,125.0,5.4,'11111222,11111222,11111222' 
TCOON,ioos:station:TCOON:005:1,2013-11-01T14:36:00Z,27.6346,-97.2370,0.0,4.6,120.0,5.7,'1111122,1111122,1111122' 
TCOON,ioos:station:TCOON:005:1,2013-11-01T14:42:00Z,27.6346,-97.2370,0.0,5.0,125.0,6.0,'11111222,11111222,11111222' 
TCOON,ioos:station:TCOON:005:1,2013-11-01T14:48:00Z,27.6346,-97.2370,0.0,5.1,129.0,6.1,'11111222,11111222,11111222' 
TCOON,ioos:station:TCOON:005:1,2013-11-01T14:54:00Z,27.6346,-97.2370,0.0,4.6,130.0,6.2,'1111122,1111122,1111122' 
TCOON,ioos:station:TCOON:005:1,2013-11-01T15:00:00Z,27.6346,-97.2370,0.0,4.4,122.0,6.5,'11111222,11111222,11111222' 
TCOON,ioos:station:TCOON:005:1,2013-11-01T15:06:00Z,27.6346,-97.2370,0.0,4.8,108.0,6.2,'11111222,11111222,11111222' 
TCOON,ioos:station:TCOON:005:1,2013-11-01T15:12:00Z,27.6346,-97.2370,0.0,5.0,121.0,5.9,'11111222,11111222,11111222' 
TCOON,ioos:station:TCOON:005:1,2013-11-01T15:18:00Z,27.6346,-97.2370,0.0,4.9,127.0,5.6,'11111222,11111222,11111222' 
TCOON,ioos:station:TCOON:005:1,2013-11-01T15:24:00Z,27.6346,-97.2370,0.0,5.2,105.0,6.4,'11111222,11111222,11111222' 
TCOON,ioos:station:TCOON:005:1,2013-11-01T15:30:00Z,27.6346,-97.2370,0.0,4.9,119.0,6.4,'11111222,11111222,11111222' 
TCOON,ioos:station:TCOON:005:1,2013-11-01T15:36:00Z,27.6346,-97.2370,0.0,4.8,124.0,5.7,'11111222,11111222,11111222' 
TCOON,ioos:station:TCOON:005:1,2013-11-01T15:42:00Z,27.6346,-97.2370,0.0,4.9,120.0,6.3,'11111222,11111222,11111222' 
TCOON,ioos:station:TCOON:005:1,2013-11-01T15:48:00Z,27.6346,-97.2370,0.0,4.1,120.0,6.7,'1111122,1111122,1111122' 
TCOON,ioos:station:TCOON:005:1,2013-11-01T15:54:00Z,27.6346,-97.2370,0.0,5.6,117.0,7.2,'11111222,11111222,11111222' 
TCOON,ioos:station:TCOON:005:1,2013-11-01T16:00:00Z,27.6346,-97.2370,0.0,4.9,114.0,6.0,'11111222,11111222,11111222' 
TCOON,ioos:station:TCOON:005:1,2013-11-01T16:06:00Z,27.6346,-97.2370,0.0,5.7,107.0,6.4,'11111222,11111222,11111222' 
TCOON,ioos:station:TCOON:005:1,2013-11-01T16:12:00Z,27.6346,-97.2370,0.0,4.1,129.0,6.9,'11111222,11111222,11111222' 
TCOON,ioos:station:TCOON:005:1,2013-11-01T16:18:00Z,27.6346,-97.2370,0.0,4.5,122.0,6.0,'11111222,11111222,11111222' 
TCOON,ioos:station:TCOON:005:1,2013-11-01T16:24:00Z,27.6346,-97.2370,0.0,4.2,122.0,6.2,'11111222,11111222,11111222' 
TCOON,ioos:station:TCOON:005:1,2013-11-01T16:30:00Z,27.6346,-97.2370,0.0,4.8,106.0,6.3,'11111222,11111222,11111222' 
TCOON,ioos:station:TCOON:005:1,2013-11-01T16:36:00Z,27.6346,-97.2370,0.0,5.4,103.0,6.8,'11111222,11111222,11111222' 
TCOON,ioos:station:TCOON:005:1,2013-11-01T16:42:00Z,27.6346,-97.2370,0.0,4.8,120.0,6.5,'11111222,11111222,11111222' 
TCOON,ioos:station:TCOON:005:1,2013-11-01T16:48:00Z,27.6346,-97.2370,0.0,5.1,120.0,6.7,'1111122,1111122,1111122' 
TCOON,ioos:station:TCOON:005:1,2013-11-01T16:54:00Z,27.6346,-97.2370,0.0,5.4,127.0,6.8,'11111222,11111222,11111222' 
TCOON,ioos:station:TCOON:005:1,2013-11-01T17:00:00Z,27.6346,-97.2370,0.0,5.2,117.0,6.4,'11111222,11111222,11111222' 
TCOON,ioos:station:TCOON:005:1,2013-11-01T17:06:00Z,27.6346,-97.2370,0.0,5.2,107.0,6.7,'11111222,11111222,11111222' 
TCOON,ioos:station:TCOON:005:1,2013-11-01T17:12:00Z,27.6346,-97.2370,0.0,5.8,109.0,6.8,'11111222,11111222,11111222' 
TCOON,ioos:station:TCOON:005:1,2013-11-01T17:18:00Z,27.6346,-97.2370,0.0,5.7,112.0,7.0,'11111222,11111222,11111222' 
TCOON,ioos:station:TCOON:005:1,2013-11-01T17:24:00Z,27.6346,-97.2370,0.0,5.1,110.0,6.7,'1111122,1111122,1111122' 
TCOON,ioos:station:TCOON:005:1,2013-11-01T17:30:00Z,27.6346,-97.2370,0.0,5.7,121.0,7.1,'11111222,11111222,11111222' 
TCOON,ioos:station:TCOON:005:1,2013-11-01T17:36:00Z,27.6346,-97.2370,0.0,5.5,115.0,6.9,'11111222,11111222,11111222' 
TCOON,ioos:station:TCOON:005:1,2013-11-01T17:42:00Z,27.6346,-97.2370,0.0,5.9,129.0,8.0,'11111222,11111222,11111222' 
TCOON,ioos:station:TCOON:005:1,2013-11-01T17:48:00Z,27.6346,-97.2370,0.0,5.1,140.0,6.7,'1111122,1111122,1111122' 
TCOON,ioos:station:TCOON:005:1,2013-11-01T17:54:00Z,27.6346,-97.2370,0.0,4.9,144.0,7.8,'11111222,11111222,11111222' 
TCOON,ioos:station:TCOON:005:1,2013-11-01T18:00:00Z,27.6346,-97.2370,0.0,5.4,123.0,7.3,'11111222,11111222,11111222' 
TCOON,ioos:station:TCOON:005:1,2013-11-01T18:06:00Z,27.6346,-97.2370,0.0,4.9,133.0,6.4,'11111222,11111222,11111222' 
TCOON,ioos:station:TCOON:005:1,2013-11-01T18:12:00Z,27.6346,-97.2370,0.0,4.2,125.0,7.3,'11111222,11111222,11111222' 
TCOON,ioos:station:TCOON:005:1,2013-11-01T18:18:00Z,27.6346,-97.2370,0.0,3.9,133.0,6.4,'11111222,11111222,11111222' 
TCOON,ioos:station:TCOON:005:1,2013-11-01T18:24:00Z,27.6346,-97.2370,0.0,5.5,124.0,7.8,'11111222,11111222,11111222' 
TCOON,ioos:station:TCOON:005:1,2013-11-01T18:30:00Z,27.6346,-97.2370,0.0,5.1,135.0,7.0,'11111222,11111222,11111222' 
TCOON,ioos:station:TCOON:005:1,2013-11-01T18:36:00Z,27.6346,-97.2370,0.0,5.7,130.0,6.7,'1111122,1111122,1111122' 
TCOON,ioos:station:TCOON:005:1,2013-11-01T18:42:00Z,27.6346,-97.2370,0.0,5.6,133.0,7.5,'11111222,11111222,11111222' 
TCOON,ioos:station:TCOON:005:1,2013-11-01T18:48:00Z,27.6346,-97.2370,0.0,5.7,130.0,7.2,'1111122,1111122,1111122' 
TCOON,ioos:station:TCOON:005:1,2013-11-01T18:54:00Z,27.6346,-97.2370,0.0,5.7,132.0,7.1,'11111222,11111222,11111222' 
TCOON,ioos:station:TCOON:005:1,2013-11-01T19:00:00Z,27.6346,-97.2370,0.0,5.4,117.0,7.5,'11111222,11111222,11111222' 
TCOON,ioos:station:TCOON:005:1,2013-11-01T19:06:00Z,27.6346,-97.2370,0.0,5.6,127.0,8.0,'11111222,11111222,11111222' 
TCOON,ioos:station:TCOON:005:1,2013-11-01T19:12:00Z,27.6346,-97.2370,0.0,4.9,134.0,7.2,'11111222,11111222,11111222' 
TCOON,ioos:station:TCOON:005:1,2013-11-01T19:18:00Z,27.6346,-97.2370,0.0,5.6,114.0,7.5,'11111222,11111222,11111222' 
TCOON,ioos:station:TCOON:005:1,2013-11-01T19:24:00Z,27.6346,-97.2370,0.0,6.0,115.0,8.2,'11111222,11111222,11111222' 
TCOON,ioos:station:TCOON:005:1,2013-11-01T19:30:00Z,27.6346,-97.2370,0.0,5.3,115.0,7.8,'11111222,11111222,11111222' 
TCOON,ioos:station:TCOON:005:1,2013-11-01T19:36:00Z,27.6346,-97.2370,0.0,5.7,130.0,8.2,'1111122,1111122,1111122' 
TCOON,ioos:station:TCOON:005:1,2013-11-01T19:42:00Z,27.6346,-97.2370,0.0,5.5,126.0,7.2,'11111222,11111222,11111222' 
TCOON,ioos:station:TCOON:005:1,2013-11-01T19:48:00Z,27.6346,-97.2370,0.0,4.7,124.0,7.2,'11111222,11111222,11111222' 
TCOON,ioos:station:TCOON:005:1,2013-11-01T19:54:00Z,27.6346,-97.2370,0.0,5.3,131.0,7.0,'11111222,11111222,11111222' 
TCOON,ioos:station:TCOON:005:1,2013-11-01T20:00:00Z,27.6346,-97.2370,0.0,5.6,121.0,7.7,'11111222,11111222,11111222' 
TCOON,ioos:station:TCOON:005:1,2013-11-01T20:06:00Z,27.6346,-97.2370,0.0,5.1,126.0,6.9,'11111222,11111222,11111222' 
TCOON,ioos:station:TCOON:005:1,2013-11-01T20:12:00Z,27.6346,-97.2370,0.0,5.2,135.0,6.8,'11111222,11111222,11111222' 
TCOON,ioos:station:TCOON:005:1,2013-11-01T20:18:00Z,27.6346,-97.2370,0.0,5.7,124.0,6.8,'11111222,11111222,11111222' 
TCOON,ioos:station:TCOON:005:1,2013-11-01T20:24:00Z,27.6346,-97.2370,0.0,5.7,144.0,7.5,'11111222,11111222,11111222' 